Weather in Nerdva

Russia / Perm Krai     58°41′48″N   55°02′39″E
temp.,
°C
wind,
m/s
gust,
m/s
humid.,
%
clouds,
%
prec.,
mm/h
press.,
hPa
HPBL,
m
19 september, sun
sun1923:00+3nw51191100 0.3 10141056
02:00+2nnw51083100 0.1 10151031
05:00+2nw51080100 0.2 10161252
08:00+2nw51080100 0.1 10171229
11:00+4nnw5973100 0.1 10181415
14:00+5nw5961100 0.1 10191440
17:00+5nw5962100 0.1 10201512
20:00+4nw4866100 0.0 10211123
20 september, mon
mon2023:00+3nw4972100 0.0 1022794
02:00+2nw397915 0.0 1023440
05:00−1nw39945 0.0 1025325
08:00−1nnw389540 0.0 1026347
11:00+4n357385 0.0 1027776
14:00+5n4567100 0.0 10291050
17:00+5nne2468100 0.0 1029902
20:00+4nne2472100 0.0 1030137
21 september, tue
tue2123:00+4ne227188 0.0 103161
02:000ne00905 0.0 103110
05:00−1nw22945 0.0 103227
08:00−1n23925 0.0 1031103
11:00+5n23675 0.0 1030586
14:00+8n22545 0.0 1029977
17:00+8n235560 0.0 1028954
20:00+2nne228463 0.0 102814
22 september, wed
wed2223:00+1nne11885 0.0 102810
02:000n22905 0.0 102816
05:000nnw229434 0.0 102830
08:00+3n248493 0.0 1028141
11:00+6n2372100 0.0 1028335
14:00+9n236548 0.0 1028694
17:00+9nne247227 0.0 1027591
20:00+4nne229418 0.0 102824
23 september, thu
thu2323:00+5ne1190100 0.0 102926
02:00+5ene1189100 0.0 102913
05:00+3e21938 0.0 102916
08:00+2ese11945 0.0 103015
11:00+8se22680 0.0 1030462
14:00+12sse23570 0.0 1029887
17:00+12s23580 0.0 1028899
20:00+7se22825 0.0 102815